Time,TemperatureF,DewpointF,PressureIn,WindDirection,WindDirectionDegrees,WindSpeedMPH,WindSpeedGustMPH,Humidity,HourlyPrecipIn,Conditions,Clouds,dailyrainin,SolarRadiationWatts/m^2,SoftwareType,DateUTC
2013-08-03 00:01:00,65.4,60.8,29.86,ESE,105,0.0,0.0,85,0.00,,FEW110,0.00,0.00,VWS V14.01,2013-08-03 04:01:00,
2013-08-03 00:02:00,65.4,60.8,29.86,ESE,105,0.0,0.0,85,0.00,,FEW110,0.00,0.00,VWS V14.01,2013-08-03 04:02:00,
2013-08-03 00:07:00,65.5,61.2,29.86,ESE,105,0.0,1.0,86,0.00,,FEW110,0.00,0.00,VWS V14.01,2013-08-03 04:07:00,
2013-08-03 00:12:00,65.5,61.2,29.86,ESE,105,0.0,0.0,86,0.00,,FEW110,0.00,0.00,VWS V14.01,2013-08-03 04:12:00,
2013-08-03 00:17:00,65.4,60.8,29.86,ESE,105,0.0,0.0,85,0.00,,FEW110,0.00,0.00,VWS V14.01,2013-08-03 04:17:00,
2013-08-03 00:22:00,65.4,61.1,29.86,ESE,105,0.0,0.0,86,0.00,,FEW110,0.00,0.00,VWS V14.01,2013-08-03 04:22:00,
2013-08-03 00:27:00,65.4,61.4,29.86,ESE,105,0.0,0.0,87,0.00,,FEW110,0.00,0.00,VWS V14.01,2013-08-03 04:27:00,
2013-08-03 00:32:00,65.3,61.3,29.85,ESE,105,0.0,0.0,87,0.00,,FEW110,0.00,0.00,VWS V14.01,2013-08-03 04:32:00,
2013-08-03 00:37:00,65.2,61.2,29.86,ESE,105,0.0,0.0,87,0.00,,FEW110,0.00,0.00,VWS V14.01,2013-08-03 04:37:00,
2013-08-03 00:42:00,65.0,60.7,29.86,ESE,105,0.0,0.0,86,0.00,,FEW110,0.00,0.00,VWS V14.01,2013-08-03 04:42:00,
2013-08-03 00:47:00,64.9,60.6,29.86,ESE,105,0.0,0.0,86,0.00,,FEW110,0.00,0.00,VWS V14.01,2013-08-03 04:47:00,
2013-08-03 00:52:00,64.8,60.5,29.85,ESE,105,0.0,0.0,86,0.00,,FEW110,0.00,0.00,VWS V14.01,2013-08-03 04:52:00,
2013-08-03 00:57:00,64.8,60.8,29.86,ESE,105,0.0,0.0,87,0.00,,FEW110,0.00,0.00,VWS V14.01,2013-08-03 04:57:00,
2013-08-03 01:02:00,64.7,60.8,29.86,ESE,105,0.0,0.0,87,0.00,,FEW100,0.00,0.00,VWS V14.01,2013-08-03 05:02:00,
2013-08-03 01:07:00,64.7,61.1,29.85,ESE,105,0.0,0.0,88,0.00,,FEW100,0.00,0.00,VWS V14.01,2013-08-03 05:07:00,
2013-08-03 01:12:00,64.7,61.1,29.85,ESE,105,0.0,0.0,88,0.00,,FEW100,0.00,0.00,VWS V14.01,2013-08-03 05:12:00,
2013-08-03 01:17:00,64.6,60.7,29.85,ESE,105,0.0,0.0,87,0.00,,FEW100,0.00,0.00,VWS V14.01,2013-08-03 05:17:00,
2013-08-03 01:22:00,64.5,60.9,29.85,ESE,105,0.0,0.0,88,0.00,,FEW100,0.00,0.00,VWS V14.01,2013-08-03 05:22:00,
2013-08-03 01:27:00,64.5,60.9,29.85,ESE,105,0.0,1.0,88,0.00,,FEW100,0.00,0.00,VWS V14.01,2013-08-03 05:27:00,
2013-08-03 01:32:00,64.4,60.8,29.85,ESE,105,0.0,0.0,88,0.00,,FEW100,0.00,0.00,VWS V14.01,2013-08-03 05:32:00,
2013-08-03 01:37:00,64.4,61.1,29.85,ESE,105,0.0,0.0,89,0.00,,FEW100,0.00,0.00,VWS V14.01,2013-08-03 05:37:00,
2013-08-03 01:42:00,64.4,61.1,29.85,ESE,105,0.0,0.0,89,0.00,,FEW100,0.00,0.00,VWS V14.01,2013-08-03 05:42:00,
2013-08-03 01:47:00,64.4,61.1,29.85,ESE,105,0.0,0.0,89,0.00,,FEW100,0.00,0.00,VWS V14.01,2013-08-03 05:47:00,
2013-08-03 01:52:00,64.3,61.0,29.84,ESE,105,0.0,0.0,89,0.00,,FEW100,0.00,0.00,VWS V14.01,2013-08-03 05:52:00,
2013-08-03 01:57:00,64.2,60.9,29.84,ESE,105,0.0,0.0,89,0.00,,FEW100,0.00,0.00,VWS V14.01,2013-08-03 05:57:00,
2013-08-03 02:02:00,64.1,60.8,29.84,ESE,105,0.0,0.0,89,0.00,,BKN095,0.00,0.00,VWS V14.01,2013-08-03 06:02:00,
2013-08-03 02:07:00,63.9,60.6,29.83,ESE,105,0.0,0.0,89,0.00,,BKN095,0.00,0.00,VWS V14.01,2013-08-03 06:07:00,
2013-08-03 02:12:00,63.8,60.5,29.83,ESE,105,0.0,0.0,89,0.00,,BKN095,0.00,0.00,VWS V14.01,2013-08-03 06:12:00,
2013-08-03 02:17:00,63.5,60.2,29.83,ESE,105,0.0,0.0,89,0.00,,BKN095,0.00,0.00,VWS V14.01,2013-08-03 06:17:00,
2013-08-03 02:22:00,63.3,60.0,29.83,ESE,105,0.0,0.0,89,0.00,,BKN095,0.00,0.00,VWS V14.01,2013-08-03 06:22:00,
2013-08-03 02:28:00,63.1,60.1,29.83,ESE,105,0.0,0.0,90,0.00,,BKN095,0.00,0.00,VWS V14.01,2013-08-03 06:28:00,
2013-08-03 02:33:00,62.9,59.6,29.82,ESE,105,0.0,0.0,89,0.00,,BKN095,0.00,0.00,VWS V14.01,2013-08-03 06:33:00,
2013-08-03 02:38:00,62.7,59.7,29.82,ESE,105,0.0,0.0,90,0.00,,BKN095,0.00,0.00,VWS V14.01,2013-08-03 06:38:00,
2013-08-03 02:42:00,62.6,59.6,29.82,ESE,105,0.0,0.0,90,0.00,,BKN095,0.00,0.00,VWS V14.01,2013-08-03 06:42:00,
2013-08-03 02:48:00,62.4,59.4,29.82,ESE,105,0.0,0.0,90,0.00,,BKN095,0.00,0.00,VWS V14.01,2013-08-03 06:48:00,
2013-08-03 02:53:00,62.3,59.6,29.82,ESE,105,0.0,0.0,91,0.00,,BKN095,0.00,0.00,VWS V14.01,2013-08-03 06:53:00,
2013-08-03 02:58:00,62.2,59.5,29.82,ESE,105,0.0,0.0,91,0.00,,BKN095,0.00,0.00,VWS V14.01,2013-08-03 06:58:00,
2013-08-03 03:03:00,62.1,59.5,29.82,ESE,105,0.0,2.0,91,0.00,,FEW120,0.00,0.00,VWS V14.01,2013-08-03 07:03:00,
2013-08-03 03:08:00,62.0,59.3,29.82,ESE,105,0.0,2.0,91,0.00,,FEW120,0.00,0.00,VWS V14.01,2013-08-03 07:08:00,
2013-08-03 03:13:00,61.8,59.2,29.82,ESE,105,0.0,0.0,91,0.00,,FEW120,0.00,0.00,VWS V14.01,2013-08-03 07:13:00,
2013-08-03 03:18:00,61.7,59.4,29.81,ESE,105,0.0,0.0,92,0.00,,FEW120,0.00,0.00,VWS V14.01,2013-08-03 07:18:00,
2013-08-03 03:23:00,61.7,59.4,29.81,ESE,105,0.0,0.0,92,0.00,,FEW120,0.00,0.00,VWS V14.01,2013-08-03 07:23:00,
2013-08-03 03:28:00,61.6,59.3,29.81,ESE,105,0.0,0.0,92,0.00,,FEW120,0.00,0.00,VWS V14.01,2013-08-03 07:28:00,
2013-08-03 03:33:00,61.5,59.2,29.81,ESE,105,0.0,0.0,92,0.00,,FEW120,0.00,0.00,VWS V14.01,2013-08-03 07:33:00,
2013-08-03 03:38:00,61.4,59.1,29.81,ESE,105,0.0,0.0,92,0.00,,FEW120,0.00,0.00,VWS V14.01,2013-08-03 07:38:00,
2013-08-03 03:43:00,61.3,59.0,29.81,ESE,105,0.0,0.0,92,0.00,,FEW120,0.00,0.00,VWS V14.01,2013-08-03 07:43:00,
2013-08-03 03:48:00,61.3,59.3,29.81,ESE,105,0.0,0.0,93,0.00,,FEW120,0.00,0.00,VWS V14.01,2013-08-03 07:48:00,
2013-08-03 03:53:00,61.2,59.2,29.81,ESE,105,0.0,0.0,93,0.00,,FEW120,0.00,0.00,VWS V14.01,2013-08-03 07:53:00,
2013-08-03 03:58:00,61.2,59.2,29.81,ESE,105,0.0,0.0,93,0.00,,FEW120,0.00,0.00,VWS V14.01,2013-08-03 07:58:00,
2013-08-03 04:03:00,61.1,59.1,29.81,ESE,105,0.0,1.0,93,0.00,,CLR,0.00,0.00,VWS V14.01,2013-08-03 08:03:00,
2013-08-03 04:08:00,61.0,59.0,29.81,ESE,105,0.0,2.0,93,0.00,,CLR,0.00,0.00,VWS V14.01,2013-08-03 08:08:00,
2013-08-03 04:13:00,61.0,59.3,29.81,ESE,105,0.0,2.0,94,0.00,,CLR,0.00,0.00,VWS V14.01,2013-08-03 08:13:00,
2013-08-03 04:18:00,61.0,59.3,29.81,ESE,105,0.0,2.0,94,0.00,,CLR,0.00,0.00,VWS V14.01,2013-08-03 08:18:00,
2013-08-03 04:23:00,60.9,59.2,29.81,ESE,105,0.0,2.0,94,0.00,,CLR,0.00,0.00,VWS V14.01,2013-08-03 08:23:00,
2013-08-03 04:28:00,60.9,59.2,29.81,ESE,105,0.0,2.0,94,0.00,,CLR,0.00,0.00,VWS V14.01,2013-08-03 08:28:00,
2013-08-03 04:33:00,60.9,59.2,29.81,ESE,105,1.0,2.0,94,0.00,,CLR,0.00,0.00,VWS V14.01,2013-08-03 08:33:00,
2013-08-03 04:38:00,60.8,59.1,29.81,ESE,105,0.0,2.0,94,0.00,,CLR,0.00,0.00,VWS V14.01,2013-08-03 08:38:00,
2013-08-03 04:43:00,60.8,59.1,29.81,ESE,105,0.0,0.0,94,0.00,,CLR,0.00,0.00,VWS V14.01,2013-08-03 08:43:00,
2013-08-03 04:48:00,60.7,59.0,29.81,ESE,105,0.0,0.0,94,0.00,,CLR,0.00,0.00,VWS V14.01,2013-08-03 08:48:00,
2013-08-03 04:53:00,60.7,59.0,29.81,ESE,105,0.0,2.0,94,0.00,,CLR,0.00,0.00,VWS V14.01,2013-08-03 08:53:00,
2013-08-03 04:58:00,60.6,58.9,29.81,ESE,105,0.0,2.0,94,0.00,,CLR,0.00,0.00,VWS V14.01,2013-08-03 08:58:00,
2013-08-03 05:03:00,60.6,58.9,29.81,ESE,105,0.0,0.0,94,0.00,,CLR,0.00,0.00,VWS V14.01,2013-08-03 09:03:00,
2013-08-03 05:08:00,60.6,59.2,29.81,ESE,105,0.0,3.0,95,0.00,,CLR,0.00,0.00,VWS V14.01,2013-08-03 09:08:00,
2013-08-03 05:13:00,60.7,59.3,29.81,ESE,105,0.0,2.0,95,0.00,,CLR,0.00,0.00,VWS V14.01,2013-08-03 09:13:00,
2013-08-03 05:18:00,60.7,59.3,29.81,ESE,105,0.0,2.0,95,0.00,,CLR,0.00,0.00,VWS V14.01,2013-08-03 09:18:00,
2013-08-03 05:23:00,60.7,59.3,29.82,ESE,105,0.0,0.0,95,0.00,,CLR,0.00,0.00,VWS V14.01,2013-08-03 09:23:00,
2013-08-03 05:28:00,60.7,59.3,29.82,ESE,105,0.0,0.0,95,0.00,,CLR,0.00,0.00,VWS V14.01,2013-08-03 09:28:00,
2013-08-03 05:33:00,60.7,59.0,29.82,ESE,105,0.0,0.0,94,0.00,,CLR,0.00,0.00,VWS V14.01,2013-08-03 09:33:00,
2013-08-03 05:38:00,60.6,58.9,29.82,ESE,105,0.0,0.0,94,0.00,,CLR,0.00,0.00,VWS V14.01,2013-08-03 09:38:00,
2013-08-03 05:43:00,60.6,59.2,29.82,ESE,105,0.0,1.0,95,0.00,,CLR,0.00,0.00,VWS V14.01,2013-08-03 09:43:00,
2013-08-03 05:48:00,60.5,59.1,29.82,ESE,105,0.0,1.0,95,0.00,,CLR,0.00,5.00,VWS V14.01,2013-08-03 09:48:00,
2013-08-03 05:53:00,60.5,59.1,29.82,ESE,105,0.0,0.0,95,0.00,,CLR,0.00,7.00,VWS V14.01,2013-08-03 09:53:00,
2013-08-03 05:58:00,60.5,59.1,29.82,ESE,105,0.0,2.0,95,0.00,,CLR,0.00,9.00,VWS V14.01,2013-08-03 09:58:00,
2013-08-03 06:03:00,60.6,59.2,29.82,ESE,105,0.0,2.0,95,0.00,,CLR,0.00,11.00,VWS V14.01,2013-08-03 10:03:00,
2013-08-03 06:08:00,60.6,59.2,29.82,ESE,105,0.0,2.0,95,0.00,,CLR,0.00,14.00,VWS V14.01,2013-08-03 10:08:00,
2013-08-03 06:14:00,60.7,59.3,29.82,ESE,105,0.0,2.0,95,0.00,,CLR,0.00,18.00,VWS V14.01,2013-08-03 10:14:00,
2013-08-03 06:19:00,60.7,59.3,29.82,ESE,105,0.0,2.0,95,0.00,,CLR,0.00,19.00,VWS V14.01,2013-08-03 10:19:00,
2013-08-03 06:24:00,60.8,59.7,29.82,ESE,105,1.0,3.0,96,0.00,,CLR,0.00,21.00,VWS V14.01,2013-08-03 10:24:00,
2013-08-03 06:29:00,60.9,59.8,29.83,ESE,105,0.0,3.0,96,0.00,,CLR,0.00,23.00,VWS V14.01,2013-08-03 10:29:00,
2013-08-03 06:34:00,61.0,59.9,29.83,ESE,105,0.0,2.0,96,0.00,,CLR,0.00,26.00,VWS V14.01,2013-08-03 10:34:00,
2013-08-03 06:39:00,61.1,60.0,29.83,ESE,105,0.0,2.0,96,0.00,,CLR,0.00,30.00,VWS V14.01,2013-08-03 10:39:00,
2013-08-03 06:43:00,61.2,60.0,29.83,ESE,105,0.0,0.0,96,0.00,,CLR,0.00,33.00,VWS V14.01,2013-08-03 10:43:00,
2013-08-03 06:49:00,61.3,60.2,29.82,ESE,105,0.0,0.0,96,0.00,,CLR,0.00,42.00,VWS V14.01,2013-08-03 10:49:00,
2013-08-03 06:54:00,61.4,60.2,29.82,ESE,105,0.0,2.0,96,0.00,,CLR,0.00,46.00,VWS V14.01,2013-08-03 10:54:00,
2013-08-03 06:59:00,61.6,60.5,29.82,ESE,105,0.0,2.0,96,0.00,,CLR,0.00,44.00,VWS V14.01,2013-08-03 10:59:00,
2013-08-03 07:04:00,61.7,60.5,29.82,ESE,105,0.0,0.0,96,0.00,,FEW095,0.00,53.00,VWS V14.01,2013-08-03 11:04:00,
2013-08-03 07:09:00,61.8,60.7,29.82,ESE,105,0.0,0.0,96,0.00,,FEW095,0.00,58.00,VWS V14.01,2013-08-03 11:09:00,
2013-08-03 07:14:00,62.1,61.0,29.82,ESE,105,0.0,2.0,96,0.00,,FEW095,0.00,67.00,VWS V14.01,2013-08-03 11:14:00,
2013-08-03 07:19:00,62.2,61.0,29.82,ESE,105,0.0,2.0,96,0.00,,FEW095,0.00,72.00,VWS V14.01,2013-08-03 11:19:00,
2013-08-03 07:24:00,62.5,61.3,29.81,ESE,105,0.0,0.0,96,0.00,,FEW095,0.00,95.00,VWS V14.01,2013-08-03 11:24:00,
2013-08-03 07:29:00,62.8,61.7,29.82,ESE,105,0.0,0.0,96,0.00,,FEW095,0.00,113.00,VWS V14.01,2013-08-03 11:29:00,
2013-08-03 07:34:00,63.2,62.0,29.82,ESE,105,0.0,0.0,96,0.00,,FEW095,0.00,114.00,VWS V14.01,2013-08-03 11:34:00,
2013-08-03 07:39:00,63.6,62.4,29.82,ESE,105,0.0,0.0,96,0.00,,FEW095,0.00,104.00,VWS V14.01,2013-08-03 11:39:00,
2013-08-03 07:44:00,63.9,62.7,29.82,ESE,105,0.0,0.0,96,0.00,,FEW095,0.00,156.00,VWS V14.01,2013-08-03 11:44:00,
2013-08-03 07:49:00,64.2,63.0,29.82,ESE,105,0.0,0.0,96,0.00,,FEW095,0.00,158.00,VWS V14.01,2013-08-03 11:49:00,
2013-08-03 07:54:00,64.5,63.0,29.82,ESE,105,0.0,0.0,95,0.00,,FEW095,0.00,134.00,VWS V14.01,2013-08-03 11:54:00,
2013-08-03 07:59:00,64.9,63.4,29.82,ESE,105,0.0,0.0,95,0.00,,FEW095,0.00,134.00,VWS V14.01,2013-08-03 11:59:00,
2013-08-03 08:04:00,65.2,63.7,29.82,ESE,105,0.0,0.0,95,0.00,,CLR,0.00,167.00,VWS V14.01,2013-08-03 12:04:00,
2013-08-03 08:09:00,65.3,63.5,29.82,ESE,105,0.0,0.0,94,0.00,,CLR,0.00,188.00,VWS V14.01,2013-08-03 12:09:00,
2013-08-03 08:14:00,65.7,63.6,29.82,ESE,105,0.0,0.0,93,0.00,,CLR,0.00,188.00,VWS V14.01,2013-08-03 12:14:00,
2013-08-03 08:19:00,66.0,63.6,29.82,ESE,105,1.0,3.0,92,0.00,,CLR,0.00,225.00,VWS V14.01,2013-08-03 12:19:00,
2013-08-03 08:24:00,66.3,63.6,29.82,ESE,105,0.0,2.0,91,0.00,,CLR,0.00,202.00,VWS V14.01,2013-08-03 12:24:00,
2013-08-03 08:29:00,66.6,63.6,29.82,ESE,105,1.0,2.0,90,0.00,,CLR,0.00,160.00,VWS V14.01,2013-08-03 12:29:00,
2013-08-03 08:34:00,66.7,63.4,29.82,SE,130,2.0,3.0,89,0.00,,CLR,0.00,188.00,VWS V14.01,2013-08-03 12:34:00,
2013-08-03 08:39:00,66.9,63.9,29.82,SE,130,0.0,3.0,90,0.00,,CLR,0.00,225.00,VWS V14.01,2013-08-03 12:39:00,
2013-08-03 08:44:00,67.2,63.8,29.82,SE,130,0.0,2.0,89,0.00,,CLR,0.00,292.00,VWS V14.01,2013-08-03 12:44:00,
2013-08-03 08:49:00,67.6,64.2,29.82,SE,130,0.0,2.0,89,0.00,,CLR,0.00,236.00,VWS V14.01,2013-08-03 12:49:00,
2013-08-03 08:54:00,67.9,64.2,29.82,SSE,159,0.0,3.0,88,0.00,,CLR,0.00,207.00,VWS V14.01,2013-08-03 12:54:00,
2013-08-03 08:59:00,68.1,64.4,29.82,SSE,159,1.0,3.0,88,0.00,,CLR,0.00,204.00,VWS V14.01,2013-08-03 12:59:00,
2013-08-03 09:04:00,68.3,64.6,29.82,SSE,159,1.0,2.0,88,0.00,,CLR,0.00,221.00,VWS V14.01,2013-08-03 13:04:00,
2013-08-03 09:09:00,68.3,64.3,29.82,SSE,159,1.0,2.0,87,0.00,,CLR,0.00,199.00,VWS V14.01,2013-08-03 13:09:00,
2013-08-03 09:14:00,68.4,64.4,29.82,SSE,159,0.0,1.0,87,0.00,,CLR,0.00,200.00,VWS V14.01,2013-08-03 13:14:00,
2013-08-03 09:19:00,68.4,64.4,29.82,SSE,159,0.0,2.0,87,0.00,,CLR,0.00,225.00,VWS V14.01,2013-08-03 13:19:00,
2013-08-03 09:24:00,68.5,64.5,29.82,SSE,159,0.0,2.0,87,0.00,,CLR,0.00,327.00,VWS V14.01,2013-08-03 13:24:00,
2013-08-03 09:29:00,68.8,64.8,29.82,SSE,159,0.0,2.0,87,0.00,,CLR,0.00,299.00,VWS V14.01,2013-08-03 13:29:00,
2013-08-03 09:34:00,69.2,65.2,29.82,SSE,159,0.0,1.0,87,0.00,,CLR,0.00,348.00,VWS V14.01,2013-08-03 13:34:00,
2013-08-03 09:39:00,69.5,65.1,29.82,SSE,159,1.0,2.0,86,0.00,,CLR,0.00,276.00,VWS V14.01,2013-08-03 13:39:00,
2013-08-03 09:44:00,69.8,65.1,29.81,SSE,159,0.0,2.0,85,0.00,,CLR,0.00,134.00,VWS V14.01,2013-08-03 13:44:00,
2013-08-03 09:49:00,70.0,64.6,29.81,SSE,159,0.0,3.0,83,0.00,,CLR,0.00,325.00,VWS V14.01,2013-08-03 13:49:00,
2013-08-03 09:54:00,70.3,65.2,29.81,SSE,159,3.0,3.0,84,0.00,,CLR,0.00,355.00,VWS V14.01,2013-08-03 13:54:00,
2013-08-03 09:59:00,70.7,65.3,29.81,South,179,0.0,5.0,83,0.00,,CLR,0.00,355.00,VWS V14.01,2013-08-03 13:59:00,
2013-08-03 10:05:00,70.9,65.1,29.81,South,170,0.0,3.0,82,0.00,,FEW045,0.00,283.00,VWS V14.01,2013-08-03 14:05:00,
2013-08-03 10:09:00,71.0,65.2,29.81,South,170,2.0,3.0,82,0.00,,FEW045,0.00,283.00,VWS V14.01,2013-08-03 14:09:00,
2013-08-03 10:14:00,71.0,65.2,29.82,SSE,161,2.0,3.0,82,0.00,,FEW045,0.00,262.00,VWS V14.01,2013-08-03 14:14:00,
2013-08-03 10:19:00,70.8,65.0,29.82,SSE,150,0.0,3.0,82,0.00,,FEW045,0.00,204.00,VWS V14.01,2013-08-03 14:19:00,
2013-08-03 10:24:00,70.6,64.8,29.82,SSE,150,0.0,2.0,82,0.00,,FEW045,0.00,206.00,VWS V14.01,2013-08-03 14:24:00,
2013-08-03 10:29:00,70.6,65.2,29.82,SSE,150,0.0,2.0,83,0.00,,FEW045,0.00,285.00,VWS V14.01,2013-08-03 14:29:00,
2013-08-03 10:34:00,70.6,64.8,29.82,ENE,78,0.0,3.0,82,0.00,,FEW045,0.00,327.00,VWS V14.01,2013-08-03 14:34:00,
2013-08-03 10:40:00,70.8,64.7,29.82,East,83,2.0,4.0,81,0.00,,FEW045,0.00,364.00,VWS V14.01,2013-08-03 14:40:00,
2013-08-03 10:45:00,71.1,64.3,29.82,East,83,0.0,2.0,79,0.00,,FEW045,0.00,397.00,VWS V14.01,2013-08-03 14:45:00,
2013-08-03 10:50:00,71.4,64.9,29.82,ESE,106,0.0,3.0,80,0.00,,FEW045,0.00,497.00,VWS V14.01,2013-08-03 14:50:00,
2013-08-03 10:54:00,71.9,65.0,29.82,SE,139,0.0,5.0,79,0.00,,FEW045,0.00,659.00,VWS V14.01,2013-08-03 14:54:00,
2013-08-03 11:00:00,72.6,65.0,29.82,South,191,0.0,5.0,77,0.00,,FEW045,0.00,578.00,VWS V14.01,2013-08-03 15:00:00,
2013-08-03 11:05:00,72.9,64.9,29.82,East,89,0.0,5.0,76,0.00,,FEW045,0.00,629.00,VWS V14.01,2013-08-03 15:05:00,
2013-08-03 11:10:00,73.3,64.9,29.82,East,90,0.0,5.0,75,0.00,,FEW045,0.00,726.00,VWS V14.01,2013-08-03 15:10:00,
2013-08-03 11:15:00,73.7,64.9,29.82,SE,127,2.0,5.0,74,0.00,,FEW045,0.00,524.00,VWS V14.01,2013-08-03 15:15:00,
2013-08-03 11:20:00,74.1,66.8,29.82,SE,129,0.0,5.0,78,0.00,,FEW045,0.00,807.00,VWS V14.01,2013-08-03 15:20:00,
2013-08-03 11:25:00,74.6,65.4,29.81,SE,129,0.0,2.0,73,0.00,,FEW045,0.00,666.00,VWS V14.01,2013-08-03 15:25:00,
2013-08-03 11:30:00,74.8,64.4,29.81,SE,136,3.0,3.0,70,0.00,,FEW045,0.00,896.00,VWS V14.01,2013-08-03 15:30:00,
2013-08-03 11:35:00,75.0,64.2,29.81,NW,313,0.0,4.0,69,0.00,,FEW045,0.00,912.00,VWS V14.01,2013-08-03 15:35:00,
2013-08-03 11:40:00,75.1,65.1,29.81,NW,324,0.0,4.0,71,0.00,,FEW045,0.00,1000.00,VWS V14.01,2013-08-03 15:40:00,
2013-08-03 11:45:00,75.4,66.5,29.81,NW,324,0.0,2.0,74,0.00,,FEW045,0.00,1000.00,VWS V14.01,2013-08-03 15:45:00,
2013-08-03 11:50:00,75.7,65.2,29.81,SSE,151,0.0,5.0,70,0.00,,FEW045,0.00,1106.00,VWS V14.01,2013-08-03 15:50:00,
2013-08-03 11:55:00,75.8,65.7,29.81,SE,143,0.0,3.0,71,0.00,,FEW045,0.00,874.00,VWS V14.01,2013-08-03 15:55:00,
2013-08-03 12:00:00,76.2,64.9,29.81,SE,142,0.0,3.0,68,0.00,,FEW045,0.00,962.00,VWS V14.01,2013-08-03 16:00:00,
2013-08-03 12:05:00,76.2,64.0,29.80,SE,140,0.0,3.0,66,0.00,,SCT045,0.00,740.00,VWS V14.01,2013-08-03 16:05:00,
2013-08-03 12:10:00,76.2,66.1,29.80,SE,142,0.0,3.0,71,0.00,,SCT045,0.00,297.00,VWS V14.01,2013-08-03 16:10:00,
2013-08-03 12:15:00,76.2,66.1,29.80,SE,142,0.0,3.0,71,0.00,,SCT045,0.00,986.00,VWS V14.01,2013-08-03 16:15:00,
2013-08-03 12:20:00,76.6,64.8,29.80,ESE,103,0.0,4.0,67,0.00,,SCT045,0.00,1049.00,VWS V14.01,2013-08-03 16:20:00,
2013-08-03 12:25:00,77.4,65.6,29.80,SSE,160,0.0,5.0,67,0.00,,SCT045,0.00,882.00,VWS V14.01,2013-08-03 16:25:00,
2013-08-03 12:30:00,77.7,65.9,29.80,South,175,1.0,6.0,67,0.00,,SCT045,0.00,909.00,VWS V14.01,2013-08-03 16:30:00,
2013-08-03 12:35:00,78.0,66.2,29.80,South,175,1.0,2.0,67,0.00,,SCT045,0.00,534.00,VWS V14.01,2013-08-03 16:35:00,
2013-08-03 12:40:00,78.0,64.8,29.80,SSE,166,0.0,3.0,64,0.00,,SCT045,0.00,541.00,VWS V14.01,2013-08-03 16:40:00,
2013-08-03 12:45:00,77.7,65.4,29.80,NNE,26,2.0,7.0,66,0.00,,SCT045,0.00,803.00,VWS V14.01,2013-08-03 16:45:00,
2013-08-03 12:50:00,77.5,63.5,29.80,NNE,25,0.0,7.0,62,0.00,,SCT045,0.00,577.00,VWS V14.01,2013-08-03 16:50:00,
2013-08-03 12:55:00,77.2,63.6,29.80,NNE,26,0.0,2.0,63,0.00,,SCT045,0.00,494.00,VWS V14.01,2013-08-03 16:55:00,
2013-08-03 13:00:00,77.0,63.9,29.80,NNE,26,0.0,2.0,64,0.00,,SCT045,0.00,281.00,VWS V14.01,2013-08-03 17:00:00,
2013-08-03 13:05:00,77.1,65.7,29.80,NW,318,2.0,4.0,68,0.00,,CLR,0.00,1078.00,VWS V14.01,2013-08-03 17:05:00,
2013-08-03 13:10:00,77.5,65.7,29.80,ESE,119,0.0,0.0,67,0.00,,CLR,0.00,318.00,VWS V14.01,2013-08-03 17:10:00,
2013-08-03 13:15:00,77.3,65.1,29.80,West,279,0.0,7.0,66,0.00,,CLR,0.00,281.00,VWS V14.01,2013-08-03 17:15:00,
2013-08-03 13:20:00,77.8,67.7,29.80,SSW,202,2.0,4.0,71,0.00,,CLR,0.00,1139.00,VWS V14.01,2013-08-03 17:20:00,
2013-08-03 13:25:00,77.9,64.8,29.80,SSW,203,0.0,4.0,64,0.00,,CLR,0.00,1267.00,VWS V14.01,2013-08-03 17:25:00,
2013-08-03 13:30:00,77.7,64.6,29.80,SSW,203,0.0,0.0,64,0.00,,CLR,0.00,311.00,VWS V14.01,2013-08-03 17:30:00,
2013-08-03 13:31:00,77.6,63.6,29.80,SSW,203,0.0,1.0,62,0.00,,CLR,0.00,311.00,VWS V14.01,2013-08-03 17:31:00,
2013-08-03 13:36:00,77.1,64.0,29.80,SSW,199,0.0,2.0,64,0.00,,CLR,0.00,302.00,VWS V14.01,2013-08-03 17:36:00,
2013-08-03 13:41:00,77.1,64.9,29.80,South,188,0.0,2.0,66,0.00,,CLR,0.00,541.00,VWS V14.01,2013-08-03 17:41:00,
2013-08-03 13:46:00,77.1,64.4,29.80,SE,145,0.0,2.0,65,0.00,,CLR,0.00,313.00,VWS V14.01,2013-08-03 17:46:00,
2013-08-03 13:50:00,76.9,65.5,29.80,SE,145,0.0,0.0,68,0.00,,CLR,0.00,413.00,VWS V14.01,2013-08-03 17:50:00,
2013-08-03 13:56:00,76.9,66.4,29.80,SE,145,0.0,2.0,70,0.00,,CLR,0.00,366.00,VWS V14.01,2013-08-03 17:56:00,
2013-08-03 14:01:00,77.1,64.9,29.80,SE,145,0.0,1.0,66,0.00,,BKN055,0.00,360.00,VWS V14.01,2013-08-03 18:01:00,
2013-08-03 14:06:00,77.0,65.6,29.80,SE,146,0.0,3.0,68,0.00,,BKN055,0.00,267.00,VWS V14.01,2013-08-03 18:06:00,
2013-08-03 14:11:00,76.6,64.0,29.80,East,100,0.0,3.0,65,0.00,,BKN055,0.00,297.00,VWS V14.01,2013-08-03 18:11:00,
2013-08-03 14:16:00,76.4,66.3,29.79,SSW,200,2.0,4.0,71,0.00,,BKN055,0.00,517.00,VWS V14.01,2013-08-03 18:16:00,
2013-08-03 14:21:00,76.6,65.3,29.79,SSW,200,0.0,1.0,68,0.00,,BKN055,0.00,287.00,VWS V14.01,2013-08-03 18:21:00,
2013-08-03 14:26:00,76.6,64.4,29.80,SSE,150,0.0,3.0,66,0.00,,BKN055,0.00,313.00,VWS V14.01,2013-08-03 18:26:00,
2013-08-03 14:31:00,76.7,64.5,29.80,SSE,150,0.0,1.0,66,0.00,,BKN055,0.00,408.00,VWS V14.01,2013-08-03 18:31:00,
2013-08-03 14:36:00,76.9,66.0,29.80,SE,146,0.0,3.0,69,0.00,,BKN055,0.00,483.00,VWS V14.01,2013-08-03 18:36:00,
2013-08-03 14:41:00,77.2,64.5,29.79,SE,126,0.0,1.0,65,0.00,,BKN055,0.00,359.00,VWS V14.01,2013-08-03 18:41:00,
2013-08-03 14:46:00,77.7,65.4,29.79,SSE,160,2.0,4.0,66,0.00,,BKN055,0.00,668.00,VWS V14.01,2013-08-03 18:46:00,
2013-08-03 14:51:00,78.2,64.1,29.79,South,182,0.0,3.0,62,0.00,,BKN055,0.00,385.00,VWS V14.01,2013-08-03 18:51:00,
2013-08-03 14:56:00,78.1,64.9,29.79,South,182,4.0,4.0,64,0.00,,BKN055,0.00,773.00,VWS V14.01,2013-08-03 18:56:00,
2013-08-03 15:01:00,78.4,63.8,29.79,SSW,210,2.0,2.0,61,0.00,,SCT060,0.00,570.00,VWS V14.01,2013-08-03 19:01:00,
2013-08-03 15:06:00,78.8,66.9,29.79,South,190,0.0,2.0,67,0.00,,SCT060,0.00,805.00,VWS V14.01,2013-08-03 19:06:00,
2013-08-03 15:11:00,79.1,65.0,29.79,South,181,1.0,2.0,62,0.00,,SCT060,0.00,650.00,VWS V14.01,2013-08-03 19:11:00,
2013-08-03 15:16:00,79.1,65.4,29.79,ESE,116,2.0,4.0,63,0.00,,SCT060,0.00,499.00,VWS V14.01,2013-08-03 19:16:00,
2013-08-03 15:21:00,78.8,64.2,29.79,SE,146,0.0,0.0,61,0.00,,SCT060,0.00,246.00,VWS V14.01,2013-08-03 19:21:00,
2013-08-03 15:27:00,78.3,64.7,29.79,SE,146,0.0,2.0,63,0.00,,SCT060,0.00,120.00,VWS V14.01,2013-08-03 19:27:00,
2013-08-03 15:32:00,77.5,64.4,29.79,SE,146,0.0,0.0,64,0.00,,SCT060,0.00,160.00,VWS V14.01,2013-08-03 19:32:00,
2013-08-03 15:37:00,77.3,66.3,29.79,East,86,1.0,4.0,69,0.00,,SCT060,0.00,826.00,VWS V14.01,2013-08-03 19:37:00,
2013-08-03 15:42:00,78.0,66.6,29.78,East,94,0.0,3.0,68,0.00,,SCT060,0.00,747.00,VWS V14.01,2013-08-03 19:42:00,
2013-08-03 15:47:00,79.0,67.6,29.79,East,94,0.0,3.0,68,0.00,,SCT060,0.00,770.00,VWS V14.01,2013-08-03 19:47:00,
2013-08-03 15:52:00,79.6,64.5,29.79,ESE,110,2.0,6.0,60,0.00,,SCT060,0.00,144.00,VWS V14.01,2013-08-03 19:52:00,
2013-08-03 15:57:00,78.9,63.8,29.78,SSW,202,0.0,6.0,60,0.00,,SCT060,0.00,784.00,VWS V14.01,2013-08-03 19:57:00,
2013-08-03 16:02:00,78.7,65.5,29.78,SSE,167,3.0,3.0,64,0.00,,SCT060,0.00,740.00,VWS V14.01,2013-08-03 20:02:00,
2013-08-03 16:07:00,79.0,65.8,29.78,ESE,110,0.0,4.0,64,0.00,,SCT060,0.00,693.00,VWS V14.01,2013-08-03 20:07:00,
2013-08-03 16:12:00,79.1,64.5,29.78,East,92,0.0,2.0,61,0.00,,SCT060,0.00,650.00,VWS V14.01,2013-08-03 20:12:00,
2013-08-03 16:17:00,79.3,64.2,29.77,East,101,0.0,3.0,60,0.00,,SCT060,0.00,631.00,VWS V14.01,2013-08-03 20:17:00,
2013-08-03 16:22:00,79.6,65.4,29.78,East,101,1.0,2.0,62,0.00,,SCT060,0.00,622.00,VWS V14.01,2013-08-03 20:22:00,
2013-08-03 16:27:00,79.8,64.2,29.77,East,101,0.0,2.0,59,0.00,,SCT060,0.00,613.00,VWS V14.01,2013-08-03 20:27:00,
2013-08-03 16:28:00,79.9,64.8,29.77,East,101,0.0,2.0,60,0.00,,SCT060,0.00,613.00,VWS V14.01,2013-08-03 20:28:00,
2013-08-03 16:33:00,80.1,64.5,29.77,East,101,0.0,2.0,59,0.00,,SCT060,0.00,580.00,VWS V14.01,2013-08-03 20:33:00,
2013-08-03 16:38:00,80.4,64.8,29.77,East,101,0.0,2.0,59,0.00,,SCT060,0.00,499.00,VWS V14.01,2013-08-03 20:38:00,
2013-08-03 16:43:00,80.2,64.6,29.77,East,101,1.0,3.0,59,0.00,,SCT060,0.00,524.00,VWS V14.01,2013-08-03 20:43:00,
2013-08-03 16:48:00,79.8,63.7,29.77,East,101,0.0,3.0,58,0.00,,SCT060,0.00,578.00,VWS V14.01,2013-08-03 20:48:00,
2013-08-03 16:53:00,79.3,61.2,29.77,East,86,1.0,2.0,54,0.00,,SCT060,0.00,566.00,VWS V14.01,2013-08-03 20:53:00,
2013-08-03 16:58:00,79.2,63.7,29.77,East,86,0.0,2.0,59,0.00,,SCT060,0.00,517.00,VWS V14.01,2013-08-03 20:58:00,
2013-08-03 17:03:00,79.2,64.1,29.77,East,86,0.0,2.0,60,0.00,,FEW060,0.00,499.00,VWS V14.01,2013-08-03 21:03:00,
2013-08-03 17:08:00,79.3,64.7,29.77,East,86,0.0,2.0,61,0.00,,FEW060,0.00,464.00,VWS V14.01,2013-08-03 21:08:00,
2013-08-03 17:13:00,79.2,65.1,29.77,East,87,0.0,3.0,62,0.00,,FEW060,0.00,109.00,VWS V14.01,2013-08-03 21:13:00,
2013-08-03 17:18:00,78.7,64.1,29.77,SE,126,0.0,4.0,61,0.00,,FEW060,0.00,207.00,VWS V14.01,2013-08-03 21:18:00,
2013-08-03 17:23:00,77.8,59.8,29.77,SSE,156,0.0,2.0,54,0.00,,FEW060,0.00,160.00,VWS V14.01,2013-08-03 21:23:00,
2013-08-03 17:28:00,77.4,61.0,29.77,SE,139,0.0,6.0,57,0.00,,FEW060,0.00,339.00,VWS V14.01,2013-08-03 21:28:00,
2013-08-03 17:33:00,77.2,59.3,29.77,SE,139,0.0,1.0,54,0.00,,FEW060,0.00,83.00,VWS V14.01,2013-08-03 21:33:00,
2013-08-03 17:38:00,76.9,62.0,29.77,SE,139,0.0,1.0,60,0.00,,FEW060,0.00,72.00,VWS V14.01,2013-08-03 21:38:00,
2013-08-03 17:43:00,76.4,62.4,29.77,SE,139,0.0,0.0,62,0.00,,FEW060,0.00,105.00,VWS V14.01,2013-08-03 21:43:00,
2013-08-03 17:48:00,76.0,62.0,29.77,SE,139,0.0,0.0,62,0.00,,FEW060,0.00,81.00,VWS V14.01,2013-08-03 21:48:00,
2013-08-03 17:53:00,75.8,61.4,29.77,SE,139,0.0,0.0,61,0.00,,FEW060,0.00,91.00,VWS V14.01,2013-08-03 21:53:00,
2013-08-03 17:58:00,75.7,61.3,29.77,SE,139,0.0,1.0,61,0.00,,FEW060,0.00,185.00,VWS V14.01,2013-08-03 21:58:00,
2013-08-03 18:03:00,75.5,61.1,29.77,NNE,28,1.0,5.0,61,0.00,,FEW060,0.00,304.00,VWS V14.01,2013-08-03 22:03:00,
2013-08-03 18:08:00,75.4,58.6,29.77,NNE,28,0.0,5.0,56,0.00,,FEW060,0.00,47.00,VWS V14.01,2013-08-03 22:08:00,
2013-08-03 18:13:00,75.2,60.8,29.77,NNE,28,0.0,1.0,61,0.00,,FEW060,0.00,40.00,VWS V14.01,2013-08-03 22:13:00,
2013-08-03 18:18:00,74.9,60.1,29.78,NNE,28,0.0,1.0,60,0.00,,FEW060,0.00,37.00,VWS V14.01,2013-08-03 22:18:00,
2013-08-03 18:23:00,74.6,60.3,29.78,NNE,28,0.0,1.0,61,0.00,,FEW060,0.00,35.00,VWS V14.01,2013-08-03 22:23:00,
2013-08-03 18:28:00,74.4,59.6,29.78,NNE,28,0.0,2.0,60,0.00,,FEW060,0.00,33.00,VWS V14.01,2013-08-03 22:28:00,
2013-08-03 18:33:00,74.2,60.8,29.78,NNE,28,2.0,2.0,63,0.00,,FEW060,0.00,33.00,VWS V14.01,2013-08-03 22:33:00,
2013-08-03 18:39:00,74.0,59.2,29.78,ESE,119,0.0,3.0,60,0.00,,FEW060,0.00,33.00,VWS V14.01,2013-08-03 22:39:00,
2013-08-03 18:44:00,73.8,59.1,29.78,ESE,119,0.0,1.0,60,0.00,,FEW060,0.00,30.00,VWS V14.01,2013-08-03 22:44:00,
2013-08-03 18:49:00,73.7,59.4,29.78,ESE,119,0.0,2.0,61,0.00,,FEW060,0.00,28.00,VWS V14.01,2013-08-03 22:49:00,
2013-08-03 18:53:00,73.5,59.2,29.78,ESE,119,0.0,0.0,61,0.00,,FEW060,0.00,26.00,VWS V14.01,2013-08-03 22:53:00,
2013-08-03 18:59:00,73.3,59.0,29.78,ESE,119,0.0,0.0,61,0.00,,FEW060,0.00,25.00,VWS V14.01,2013-08-03 22:59:00,
2013-08-03 19:04:00,73.1,59.8,29.78,ESE,119,0.0,0.0,63,0.00,,FEW060,0.00,23.00,VWS V14.01,2013-08-03 23:04:00,
2013-08-03 19:09:00,72.8,59.0,29.78,ESE,119,0.0,0.0,62,0.00,,FEW060,0.00,21.00,VWS V14.01,2013-08-03 23:09:00,
2013-08-03 19:13:00,72.5,59.2,29.79,ESE,119,0.0,1.0,63,0.00,,FEW060,0.00,21.00,VWS V14.01,2013-08-03 23:13:00,
2013-08-03 19:19:00,72.2,58.5,29.79,ESE,119,0.0,1.0,62,0.00,,FEW060,0.00,19.00,VWS V14.01,2013-08-03 23:19:00,
2013-08-03 19:24:00,72.2,59.8,29.79,ESE,119,0.0,0.0,65,0.00,,FEW060,0.00,18.00,VWS V14.01,2013-08-03 23:24:00,
2013-08-03 19:29:00,71.9,58.6,29.79,ESE,119,0.0,0.0,63,0.00,,FEW060,0.00,18.00,VWS V14.01,2013-08-03 23:29:00,
2013-08-03 19:34:00,71.7,58.5,29.79,ESE,119,0.0,0.0,63,0.00,,FEW060,0.00,16.00,VWS V14.01,2013-08-03 23:34:00,
2013-08-03 19:39:00,71.5,58.7,29.79,ESE,119,0.0,0.0,64,0.00,,FEW060,0.00,14.00,VWS V14.01,2013-08-03 23:39:00,
2013-08-03 19:44:00,71.3,58.5,29.79,ESE,119,0.0,0.0,64,0.00,,FEW060,0.00,11.00,VWS V14.01,2013-08-03 23:44:00,
2013-08-03 19:49:00,71.2,58.8,29.79,ESE,119,0.0,0.0,65,0.00,,FEW060,0.00,9.00,VWS V14.01,2013-08-03 23:49:00,
2013-08-03 19:54:00,71.0,58.2,29.79,ESE,119,0.0,0.0,64,0.00,,FEW060,0.00,7.00,VWS V14.01,2013-08-03 23:54:00,
2013-08-03 19:59:00,70.8,58.0,29.79,ESE,119,0.0,0.0,64,0.00,,FEW060,0.00,0.00,VWS V14.01,2013-08-03 23:59:00,
2013-08-03 20:04:00,70.5,58.6,29.80,ESE,119,0.0,0.0,66,0.00,,FEW060,0.00,0.00,VWS V14.01,2013-08-04 00:04:00,
2013-08-03 20:09:00,70.2,58.3,29.80,ESE,119,0.0,0.0,66,0.00,,FEW060,0.00,0.00,VWS V14.01,2013-08-04 00:09:00,
2013-08-03 20:14:00,69.9,58.0,29.80,ESE,119,0.0,0.0,66,0.00,,FEW060,0.00,0.00,VWS V14.01,2013-08-04 00:14:00,
2013-08-03 20:19:00,69.5,58.1,29.80,ESE,119,0.0,0.0,67,0.00,,FEW060,0.00,0.00,VWS V14.01,2013-08-04 00:19:00,
2013-08-03 20:24:00,69.2,58.2,29.81,ESE,119,0.0,0.0,68,0.00,,FEW060,0.00,0.00,VWS V14.01,2013-08-04 00:24:00,
2013-08-03 20:29:00,68.9,58.3,29.81,ESE,119,0.0,0.0,69,0.00,,FEW060,0.00,0.00,VWS V14.01,2013-08-04 00:29:00,
2013-08-03 20:34:00,68.6,58.0,29.81,East,87,0.0,1.0,69,0.00,,FEW060,0.00,0.00,VWS V14.01,2013-08-04 00:34:00,
2013-08-03 20:39:00,68.3,58.2,29.81,East,87,0.0,1.0,70,0.00,,FEW060,0.00,0.00,VWS V14.01,2013-08-04 00:39:00,
2013-08-03 20:44:00,68.1,58.0,29.81,East,87,0.0,0.0,70,0.00,,FEW060,0.00,0.00,VWS V14.01,2013-08-04 00:44:00,
2013-08-03 20:49:00,68.0,57.9,29.81,East,87,0.0,0.0,70,0.00,,FEW060,0.00,0.00,VWS V14.01,2013-08-04 00:49:00,
2013-08-03 20:54:00,67.9,57.4,29.82,East,87,0.0,0.0,69,0.00,,FEW060,0.00,0.00,VWS V14.01,2013-08-04 00:54:00,
2013-08-03 20:59:00,67.7,57.2,29.82,East,87,0.0,0.0,69,0.00,,FEW060,0.00,0.00,VWS V14.01,2013-08-04 00:59:00,
2013-08-03 21:04:00,67.6,56.7,29.82,East,87,0.0,0.0,68,0.00,,CLR,0.00,0.00,VWS V14.01,2013-08-04 01:04:00,
2013-08-03 21:09:00,67.5,57.0,29.82,East,87,0.0,0.0,69,0.00,,CLR,0.00,0.00,VWS V14.01,2013-08-04 01:09:00,
2013-08-03 21:14:00,67.3,58.4,29.82,East,87,0.0,0.0,73,0.00,,CLR,0.00,0.00,VWS V14.01,2013-08-04 01:14:00,
2013-08-03 21:19:00,67.0,57.7,29.83,East,87,0.0,0.0,72,0.00,,CLR,0.00,0.00,VWS V14.01,2013-08-04 01:19:00,
2013-08-03 21:25:00,66.7,57.8,29.83,East,87,0.0,0.0,73,0.00,,CLR,0.00,0.00,VWS V14.01,2013-08-04 01:25:00,
2013-08-03 21:30:00,66.2,56.9,29.83,East,87,0.0,0.0,72,0.00,,CLR,0.00,0.00,VWS V14.01,2013-08-04 01:30:00,
2013-08-03 21:35:00,65.9,56.6,29.83,East,87,0.0,0.0,72,0.00,,CLR,0.00,0.00,VWS V14.01,2013-08-04 01:35:00,
2013-08-03 21:40:00,65.7,56.8,29.83,East,87,0.0,0.0,73,0.00,,CLR,0.00,0.00,VWS V14.01,2013-08-04 01:40:00,
2013-08-03 21:44:00,65.6,57.1,29.83,East,87,0.0,0.0,74,0.00,,CLR,0.00,0.00,VWS V14.01,2013-08-04 01:44:00,
2013-08-03 21:50:00,65.4,57.3,29.83,East,87,0.0,0.0,75,0.00,,CLR,0.00,0.00,VWS V14.01,2013-08-04 01:50:00,
2013-08-03 21:55:00,65.3,57.5,29.83,East,87,0.0,0.0,76,0.00,,CLR,0.00,0.00,VWS V14.01,2013-08-04 01:55:00,
2013-08-03 22:00:00,65.2,58.2,29.83,East,87,0.0,0.0,78,0.00,,CLR,0.00,0.00,VWS V14.01,2013-08-04 02:00:00,
2013-08-03 22:05:00,64.9,57.9,29.83,East,87,0.0,0.0,78,0.00,,CLR,0.00,0.00,VWS V14.01,2013-08-04 02:05:00,
2013-08-03 22:10:00,64.7,57.7,29.83,East,87,0.0,0.0,78,0.00,,CLR,0.00,0.00,VWS V14.01,2013-08-04 02:10:00,
2013-08-03 22:15:00,64.3,57.7,29.83,East,87,0.0,0.0,79,0.00,,CLR,0.00,0.00,VWS V14.01,2013-08-04 02:15:00,
2013-08-03 22:20:00,64.1,57.1,29.83,East,87,0.0,0.0,78,0.00,,CLR,0.00,0.00,VWS V14.01,2013-08-04 02:20:00,
2013-08-03 22:25:00,63.8,56.8,29.84,East,87,0.0,0.0,78,0.00,,CLR,0.00,0.00,VWS V14.01,2013-08-04 02:25:00,
2013-08-03 22:30:00,63.7,57.1,29.84,East,87,0.0,0.0,79,0.00,,CLR,0.00,0.00,VWS V14.01,2013-08-04 02:30:00,
2013-08-03 22:35:00,63.5,56.9,29.84,East,87,0.0,0.0,79,0.00,,CLR,0.00,0.00,VWS V14.01,2013-08-04 02:35:00,
2013-08-03 22:40:00,63.4,56.8,29.84,East,87,0.0,0.0,79,0.00,,CLR,0.00,0.00,VWS V14.01,2013-08-04 02:40:00,
2013-08-03 22:45:00,63.2,56.6,29.84,East,87,0.0,0.0,79,0.00,,CLR,0.00,0.00,VWS V14.01,2013-08-04 02:45:00,
2013-08-03 22:50:00,63.1,56.8,29.84,East,87,0.0,0.0,80,0.00,,CLR,0.00,0.00,VWS V14.01,2013-08-04 02:50:00,
2013-08-03 22:55:00,63.1,57.5,29.84,East,87,0.0,0.0,82,0.00,,CLR,0.00,0.00,VWS V14.01,2013-08-04 02:55:00,
2013-08-03 23:00:00,63.0,57.4,29.83,East,87,0.0,0.0,82,0.00,,CLR,0.00,0.00,VWS V14.01,2013-08-04 03:00:00,
2013-08-03 23:05:00,62.9,57.3,29.84,East,87,0.0,0.0,82,0.00,,CLR,0.00,0.00,VWS V14.01,2013-08-04 03:05:00,
2013-08-03 23:10:00,62.8,57.2,29.84,East,87,0.0,0.0,82,0.00,,CLR,0.00,0.00,VWS V14.01,2013-08-04 03:10:00,
2013-08-03 23:15:00,62.6,57.0,29.84,East,87,0.0,0.0,82,0.00,,CLR,0.00,0.00,VWS V14.01,2013-08-04 03:15:00,
2013-08-03 23:20:00,62.5,57.3,29.84,East,87,0.0,0.0,83,0.00,,CLR,0.00,0.00,VWS V14.01,2013-08-04 03:20:00,
2013-08-03 23:25:00,62.4,57.2,29.84,East,87,0.0,0.0,83,0.00,,CLR,0.00,0.00,VWS V14.01,2013-08-04 03:25:00,
2013-08-03 23:30:00,62.3,57.1,29.84,East,87,0.0,0.0,83,0.00,,CLR,0.00,0.00,VWS V14.01,2013-08-04 03:30:00,
2013-08-03 23:35:00,62.2,57.3,29.84,East,87,0.0,0.0,84,0.00,,CLR,0.00,0.00,VWS V14.01,2013-08-04 03:35:00,
2013-08-03 23:40:00,62.1,57.2,29.83,East,87,0.0,0.0,84,0.00,,CLR,0.00,0.00,VWS V14.01,2013-08-04 03:40:00,
2013-08-03 23:45:00,62.0,56.8,29.83,East,87,0.0,0.0,83,0.00,,CLR,0.00,0.00,VWS V14.01,2013-08-04 03:45:00,
2013-08-03 23:50:00,61.8,56.6,29.83,East,87,0.0,0.0,83,0.00,,CLR,0.00,0.00,VWS V14.01,2013-08-04 03:50:00,
2013-08-03 23:55:00,61.6,56.4,29.83,East,87,0.0,0.0,83,0.00,,CLR,0.00,0.00,VWS V14.01,2013-08-04 03:55:00,